DELTA 1 DEB

Satellite information

Favourite Embed

Satellite Type and Status

DEBRISIN ORBIT

Key statistics

Satellite DELTA 1 DEB at a glance.

Uptime

19037

Days in orbit

Revolutions

≈ 12.5

Per day

Orbit

SSO

Sun Synchronous Orbit

Inclination

102.5

Latest

Satellite identification and parameters

Extended collection of information and parameters for DELTA 1 DEB.

Object identification

Identified? True

Debris? True

Object name: DELTA 1 DEB

International designator: 1973-086AF

Object number (NORAD): 7039

Object ID (CCSDS): 7039

Country: UNITED STATES OF AMERICA (US)

Current information (Y/N): Y

RCS size: MEDIUM

Orbital parameters

Period: 115.239 minutes

Inclination: 102.5369 deg

SMA: 7844.383 km

Apoapsis: 1568.44 km

Periapsis: 1364.055 km

RAAN: 340.3507 deg

Eccentricy: 0.01302744

Argument of periapsis: 269.963 deg

Mean anomaly: 109.0427 deg

Mean motion: 12.49581546 rev/day

Mean motion (dot): 0.00000023 rev/day2

B* drag term: 0.00046442728 1/REarth

Two-line elements (TLE)

Creation date: Dec. 18, 2025, 11:20 a.m.

Reference frame: TEME

Reference center: EARTH

Epoch: Dec. 18, 2025, 5:53 a.m. UTC

TLE line 0: 0 DELTA 1 DEB

TLE line 1: 1 07039U 73086AF 25352.24554641 .00000023 00000-0 46443-3 0 9990

TLE line 2: 2 07039 102.5369 340.3507 0130274 269.9630 109.0427 12.49581546374519

Live tracking on map

Real-time ground track for satellite DELTA 1 DEB.

In-orbit conjunctions

A list of the most updated potential collisions computed for object DELTA 1 DEB.

Target Orbit TCA Probability of collision Miss distance Type
ITOS 1 (TIROS M) SSO 2024-06-27 05:31:27 0.0001284726 274.0 (m) PAYLOAD

Associated space launch

Meteorological satellite using radiometric imaging

DELTA 1 DEB was lifted into orbit during the mission ‘Delta 0300 | NOAA 3’, on board a Delta 0300 space rocket.

The launch took place on Nov. 6, 1973, 5:02 p.m. from Space Launch Complex 2W.

For more information about the launch, click the button.

Launch to space Delta 0300 | NOAA 3
Delta 0300 | NOAA 3

Agency: N/A

Status: Launch Successful

Launch date: Nov. 6, 1973, 5:02 p.m. UTC

Rocket: Delta 0300

Launch pad: Space Launch Complex 2W

Location: Vandenberg SFB, CA, USA

...

Latest news about this satellite

There are no fresh news available about this satellite. Check back as we update our databases every day.


Newsletter sign-up

Weekly statistics, charts and insights to help you stay on top of the space industry.